Simultaneous Nadir Overpasses (SNOs) Predictions

Prediction of SNOs between METOP-A and TERRA Satellite Orbit:

Table of predicted SNOs for the next 14.0 days since TLE Epoch: 10/9/2016
Index Date (METOP-A) Time (METOP-A) Lat,Lon (METOP-A) SZA (METOP-A ) Date (TERRA) Time (TERRA) Lat,Lon (TERRA) SZA (TERRA ) Distance(km) Time Diff (sec)
1 10/09/2016 16:21:30 -81.29, 161.58 89.04 10/09/2016 16:21:57 -81.29, 161.47 89.04 1.90 27
2 10/09/2016 17:12:10 81.30, -30.62 91.04 10/09/2016 17:11:23 81.30, -30.77 91.00 2.50 47
3 10/12/2016 11:55:53 -81.29,-132.10 87.98 10/12/2016 11:56:12 -81.28,-132.29 88.00 3.31 19
4 10/12/2016 12:46:34 81.29, 35.28 92.05 10/12/2016 12:45:38 81.29, 35.46 92.04 2.92 56
5 10/15/2016 07:30:16 -81.29, -65.80 86.93 10/15/2016 07:30:26 -81.29, -65.77 86.93 0.54 10
6 10/15/2016 08:20:56 81.29, 101.95 93.14 10/15/2016 08:19:52 81.29, 101.95 93.10 0.44 64
7 10/18/2016 02:14:14 81.15,-172.87 93.32 10/18/2016 02:15:27 80.96,-172.06 93.31 25.78 73
8 10/18/2016 03:04:39 -81.29, 0.48 85.91 10/18/2016 03:04:40 -81.28, 0.64 85.89 2.62 1
9 10/18/2016 03:55:19 81.29, 168.20 94.16 10/18/2016 03:54:06 81.29, 168.34 94.14 2.41 73
10 10/20/2016 21:48:21 81.28,-100.85 95.05 10/20/2016 21:49:26 81.28,-100.67 95.10 3.11 65




NCC Satellite Simultaneous Nadir Overpasses (SNOs) Prediction Service
